Voltar ao catálogo

COSMOS 1703

AtivoNavegaçãoPO
NORAD 16262·PAYLOAD·🇷🇺 Russia

Lançado Nov 22, 1985 de Plesetsk Cosmodrome

Loading…

Próximas Passagens (próximas 24 horas)

TLE

AtualizadoSource: Space-Track

Época: Sep 14, 2026, 15:02 UTC

1 16262U 85108A   26257.62670975  .00026239  00000-0  33169-3 0  9990
2 16262  82.4540 122.4835 0005382  35.2459 324.9152 15.59362847231386

Acompanhe COSMOS 1703 em tempo real com AllMySat

Download on the App Store